Location: Chuathbaluk
(61.5726°N, 159.2454°W)
Time: 05:05:26
(UTC+00:00)

Transit 2A - Pass Details

Date: 29 November 2020
Orbit: 599 x 960 km, 66.7° (Epoch: 26 January)

Event Time Altitude Azimuth Distance (km) Brightness Sun altitude
Rises 12:22:40 0° 309° (NW) 3,399 - -45.2°
Reaches altitude 10° 12:25:24 10° 302° (WNW) 2,400 - -45.0°
Maximum altitude 12:30:20 35° 238° (WSW) 1,199 - -44.6°
Drops below altitude 10° 12:34:48 10° 173° (S) 2,170 - -44.2°
Sets 12:37:10 0° 164° (SSE) 3,030 - -44.1°
